This demonstration page uses our WeatherBlox Daily Observations layout. Learn more.

Left ArrowRight Arrow

53.62937, 11.41316

Hourly Observations for November 12, 2019

Temp ( °F °C ) Dew Point ( °F °C ) Humidity (%) Winds ( mph kmh ) Pressure ( in mb ) Visibility ( mi km ) Precip ( " mm )
6:50 am 06:50 Mostly Cloudy 39 4 36 2 87 87 S 8 13 29.59 1002 30 48 N/A
7:20 am 07:20 Mostly Cloudy 39 4 36 2 87 87 S 8 13 29.59 1002 30 48 N/A
7:50 am 07:50 Mostly Cloudy 39 4 36 2 87 87 S 9 15 29.59 1002 30 48 N/A
8:20 am 08:20 Mostly Cloudy 39 4 36 2 87 87 S 10 17 29.59 1002 30 48 N/A
8:50 am 08:50 Mostly Cloudy 41 5 36 2 81 81 S 8 13 29.59 1002 30 48 N/A
9:20 am 09:20 Mostly Cloudy 41 5 36 2 81 81 S 9 15 29.59 1002 30 48 N/A
9:50 am 09:50 Mostly Cloudy 41 5 36 2 81 81 S 9 15 29.59 1002 30 48 N/A
10:20 am 10:20 Mostly Cloudy 43 6 36 2 76 76 S 10 17 29.59 1002 30 48 N/A
10:50 am 10:50 Partly Cloudy 45 7 36 2 71 71 SSW 10 17 29.59 1002 30 48 N/A
11:20 am 11:20 Partly Cloudy 43 6 36 2 76 76 SSW 10 17 29.59 1002 30 48 N/A
11:50 am 11:50 Partly Cloudy 45 7 36 2 71 71 S 12 19 29.59 1002 30 48 N/A
12:20 pm 12:20 Partly Cloudy 46 8 37 3 71 71 S 12 19 29.59 1002 30 48 N/A
12:50 pm 12:50 Partly Cloudy 45 7 36 2 71 71 S 12 19 29.59 1002 30 48 N/A
1:20 pm 13:20 Mostly Cloudy 45 7 36 2 71 71 S 9 15 29.59 1002 30 48 N/A
1:50 pm 13:50 Mostly Cloudy 46 8 36 2 66 66 S 9 15 29.59 1002 30 48 N/A
2:20 pm 14:20 Partly Cloudy 46 8 36 2 66 66 S 9 15 29.56 1001 30 48 N/A
2:50 pm 14:50 Partly Cloudy 46 8 36 2 66 66 S 9 15 29.56 1001 30 48 N/A
3:20 pm 15:20 Partly Cloudy 45 7 36 2 71 71 S 9 15 29.59 1002 30 48 N/A
3:50 pm 15:50 Mostly Sunny 45 7 36 2 71 71 S 9 15 29.59 1002 7 11 N/A
4:20 pm 16:20 Mostly Sunny 45 7 36 2 71 71 S 7 11 29.59 1002 7 11 N/A
4:50 pm 16:50 Mostly Clear 45 7 36 2 71 71 SSE 7 11 29.56 1001 7 11 N/A
5:20 pm 17:20 Mostly Clear 45 7 36 2 71 71 SSE 6 9 29.59 1002 7 11 N/A
5:50 pm 17:50 Partly Cloudy 45 7 36 2 71 71 SSE 6 9 29.59 1002 30 48 N/A
6:20 pm 18:20 Partly Cloudy 45 7 36 2 71 71 SSE 8 13 29.59 1002 30 48 N/A
6:50 pm 18:50 Partly Cloudy 45 7 36 2 71 71 SSE 8 13 29.56 1001 30 48 N/A
7:20 pm 19:20 Mostly Cloudy 45 7 36 2 71 71 SSE 8 13 29.56 1001 30 48 N/A
7:50 pm 19:50 Mostly Cloudy 45 7 36 2 71 71 SSE 7 11 29.56 1001 30 48 N/A

Powered by AerisWeather